Date String (YYYY-MM-DD hh:mm:ss) UTC,Instrument flags,absolute air pressure of the measurement (hPa),sample flow rate (lpm),inlet stack bypass flow (lpm),air temperature of the measurement (°C),ambient temperature measured by the external sensor (°C),aerosol sample conditioner tube jacket temperature (°C),OPC LED temperature (°C),internal box temperature (°C),relative humidity of the measurement (%),span deviation,mass concentration of particles derived from Lorenz-Mie calculation of OPC scattering (μg/m³),mass concentration of particles derived from Lorenz-Mie calculation of OPC scattering (μg/m³),mass concentration of particles derived from Lorenz-Mie calculation of OPC scattering (μg/m³)
DateTimeUTC,F1_M11,P_M11,Q1_M11,Q2_M11,T1_M11,T2_M11,T3_M11,T4_M11,T5_M11,U1_M11,ZSPAN_M11,X2_M11,X0_M11,X1_M11
2023-12-22 14:00:00,SystemResetWarning,0831.9,5.00,000.00,022.0,021.1,000.0,030.3,023.4,14.2,0000.0,0002.16,0003.84,0001.76
2023-12-22 14:01:00,SystemResetWarning,0831.9,5.00,000.00,022.0,021.1,000.0,030.3,023.4,14.1,0000.0,0002.11,0004.60,0001.71
2023-12-22 14:02:00,SystemResetWarning,0831.9,5.00,000.00,022.0,021.1,000.0,030.3,023.4,14.1,0000.0,0002.10,0005.06,0001.69
2023-12-22 14:03:00,SystemResetWarning,0832.0,5.00,000.00,022.0,021.1,000.0,030.3,023.3,14.1,0000.0,0002.07,0005.06,0001.65
2023-12-22 14:04:00,SystemResetWarning,0832.0,5.00,000.00,022.0,021.1,000.0,030.3,023.4,14.1,0000.0,0001.98,0004.92,0001.57
2023-12-22 14:05:00,SystemResetWarning,0832.0,5.00,000.00,022.0,021.1,000.0,030.3,023.4,14.1,0000.0,0001.90,0004.86,0001.51
2023-12-22 14:06:00,SystemResetWarning,0832.0,5.00,000.00,022.0,021.1,000.0,030.3,023.4,14.1,0000.0,0001.77,0004.92,0001.38
2023-12-22 14:07:00,SystemResetWarning,0832.0,5.00,000.00,022.0,021.2,000.0,030.3,023.4,14.2,0000.0,0001.61,0004.74,0001.26
2023-12-22 14:08:00,SystemResetWarning,0832.0,5.00,000.00,022.0,021.2,000.0,030.3,023.4,14.2,0000.0,0001.48,0004.50,0001.17
2023-12-22 14:09:00,SystemResetWarning,0832.0,5.00,000.00,022.0,021.2,000.0,030.3,023.4,14.2,0000.0,0001.40,0004.50,0001.11
2023-12-22 14:10:00,SystemResetWarning,0832.0,5.00,000.00,022.0,021.2,000.0,030.3,023.4,14.1,0000.0,0001.33,0004.63,0001.05
2023-12-22 14:11:00,SystemResetWarning,0832.0,5.00,000.00,022.0,021.1,000.0,030.3,023.4,14.1,0000.0,0001.26,0003.91,0001.00
2023-12-22 14:12:00,SystemResetWarning,0832.0,5.00,000.00,022.0,021.1,000.0,030.3,023.4,14.2,0000.0,0001.20,0002.86,0000.97
2023-12-22 14:13:00,SystemResetWarning,0832.0,5.00,000.00,022.0,021.1,000.0,030.3,023.4,14.2,0000.0,0001.16,0002.34,0000.95
2023-12-22 14:14:00,SystemResetWarning,0832.0,5.00,000.00,022.0,021.1,000.0,030.3,023.4,14.3,0000.0,0001.14,0002.78,0000.96
2023-12-22 14:15:00,SystemResetWarning,0832.0,5.00,000.00,022.0,021.1,000.0,030.3,023.4,14.3,0000.0,0001.21,0003.13,0001.01
2023-12-22 14:16:00,SystemResetWarning,0832.0,5.00,000.00,022.0,021.1,000.0,030.3,023.4,14.3,0000.0,0001.24,0003.18,0001.01
2023-12-22 14:17:00,SystemResetWarning,0832.0,5.00,000.00,022.0,021.1,000.0,030.3,023.4,14.3,0000.0,0001.21,0002.91,0001.01
2023-12-22 14:18:00,SystemResetWarning,0832.0,5.00,000.00,022.0,021.1,000.0,030.3,023.3,14.2,0000.0,0001.21,0002.83,0001.02
2023-12-22 14:19:00,SystemResetWarning,0832.0,5.00,000.00,022.0,021.2,000.0,030.3,023.3,14.1,0000.0,0001.19,0002.80,0001.01
2023-12-22 14:20:00,SystemResetWarning,0832.0,5.00,000.00,022.0,021.2,000.0,030.3,023.3,14.1,0000.0,0001.16,0002.61,0001.00
2023-12-22 14:21:00,SystemResetWarning,0832.0,4.99,000.00,022.0,021.2,000.0,030.3,023.3,14.1,0000.0,0001.16,0002.32,0001.01
2023-12-22 14:22:00,SystemResetWarning,0832.0,5.00,000.00,022.0,021.2,000.0,030.3,023.3,14.1,0000.0,0001.17,0002.37,0001.01
2023-12-22 14:23:00,SystemResetWarning,0832.0,5.00,000.00,022.0,021.2,000.0,030.3,023.3,14.1,0000.0,0001.17,0002.38,0001.01
2023-12-22 14:24:00,SystemResetWarning,0832.0,5.00,000.00,022.0,021.2,000.0,030.3,023.4,14.1,0000.0,0001.15,0002.44,0000.97
2023-12-22 14:25:00,SystemResetWarning,0832.0,5.00,000.00,022.0,021.2,000.0,030.3,023.3,14.1,0000.0,0001.13,0002.08,0000.93
2023-12-22 14:26:00,SystemResetWarning,0832.0,5.00,000.00,022.0,021.2,000.0,030.3,023.3,14.1,0000.0,0001.08,0001.65,0000.91
2023-12-22 14:27:00,SystemResetWarning,0832.0,5.00,000.00,022.0,021.2,000.0,030.3,023.3,14.2,0000.0,0001.09,0001.64,0000.93
2023-12-22 14:28:00,SystemResetWarning,0832.0,5.00,000.00,022.0,021.2,000.0,030.3,023.3,14.2,0000.0,0001.15,0001.79,0000.97
2023-12-22 14:29:00,SystemResetWarning,0832.0,5.00,000.00,022.0,021.2,000.0,030.3,023.3,14.2,0000.0,0001.20,0002.71,0001.00
2023-12-22 14:30:00,SystemResetWarning,0832.0,5.00,000.00,022.0,021.1,000.0,030.3,023.3,14.2,0000.0,0001.25,0002.79,0001.04
2023-12-22 14:31:00,SystemResetWarning,0832.0,5.00,000.00,022.0,021.1,000.0,030.3,023.3,14.2,0000.0,0001.28,0002.86,0001.07
2023-12-22 14:32:00,SystemResetWarning,0832.0,5.00,000.00,022.0,021.2,000.0,030.3,023.4,14.2,0000.0,0001.34,0002.97,0001.10
2023-12-22 14:33:00,SystemResetWarning,0832.0,5.00,000.00,022.0,021.2,000.0,030.3,023.3,14.3,0000.0,0001.39,0003.01,0001.15
2023-12-22 14:34:00,SystemResetWarning,0831.9,5.00,000.00,022.0,021.2,000.0,030.3,023.3,14.3,0000.0,0001.48,0003.16,0001.23
2023-12-22 14:35:00,SystemResetWarning,0831.9,5.00,000.00,022.0,021.2,000.0,030.3,023.3,14.3,0000.0,0001.55,0003.31,0001.30
2023-12-22 14:36:00,SystemResetWarning,0831.9,5.00,000.00,022.0,021.2,000.0,030.3,023.4,14.4,0000.0,0001.62,0003.72,0001.35
2023-12-22 14:37:00,SystemResetWarning,0831.9,5.00,000.00,022.0,021.2,000.0,030.3,023.3,14.4,0000.0,0001.69,0003.93,0001.38
2023-12-22 14:38:00,SystemResetWarning,0831.9,5.00,000.00,022.0,021.2,000.0,030.3,023.3,14.4,0000.0,0001.76,0004.37,0001.45
2023-12-22 14:39:00,SystemResetWarning,0831.9,5.00,000.00,022.0,021.2,000.0,030.3,023.3,14.4,0000.0,0001.92,0005.18,0001.60
2023-12-22 14:40:00,SystemResetWarning,0831.8,5.00,000.00,022.0,021.2,000.0,030.3,023.3,14.5,0000.0,0002.12,0004.77,0001.81
2023-12-22 14:41:00,SystemResetWarning,0831.8,5.00,000.00,021.9,021.2,000.0,030.3,023.3,14.5,0000.0,0002.42,0004.96,0002.06
2023-12-22 14:42:00,SystemResetWarning,0831.8,5.00,000.00,021.9,021.2,000.0,030.3,023.3,14.5,0000.0,0002.76,0005.47,0002.35
2023-12-22 14:43:00,SystemResetWarning,0831.8,5.00,000.00,021.9,021.2,000.0,030.3,023.2,14.4,0000.0,0003.11,0006.07,0002.71
2023-12-22 14:44:00,SystemResetWarning,0831.8,5.00,000.00,021.9,021.2,000.0,030.3,023.3,14.4,0000.0,0003.38,0006.70,0003.07
2023-12-22 14:45:00,SystemResetWarning,0831.9,5.00,000.00,021.9,021.2,000.0,030.3,023.2,14.3,0000.0,0003.61,0007.19,0003.29
2023-12-22 14:46:00,SystemResetWarning,0831.9,5.00,000.00,021.9,021.2,000.0,030.3,023.3,14.4,0000.0,0003.80,0007.37,0003.48
2023-12-22 14:47:00,SystemResetWarning,0831.9,5.00,000.00,021.9,021.1,000.0,030.3,023.3,14.4,0000.0,0003.97,0007.40,0003.65
2023-12-22 14:48:00,SystemResetWarning,0831.9,5.00,000.00,021.9,021.1,000.0,030.3,023.2,14.4,0000.0,0004.14,0007.47,0003.82
2023-12-22 14:49:00,SystemResetWarning,0831.9,5.00,000.00,021.9,021.1,000.0,030.3,023.3,14.4,0000.0,0004.30,0007.67,0003.96
2023-12-22 14:50:00,SystemResetWarning,0831.9,5.00,000.00,021.9,021.1,000.0,030.2,023.3,14.4,0000.0,0004.41,0007.27,0004.06
2023-12-22 14:51:00,SystemResetWarning,0831.9,5.00,000.00,021.9,021.1,000.0,030.2,023.3,14.4,0000.0,0004.50,0007.42,0004.12
2023-12-22 14:52:00,SystemResetWarning,0832.0,5.01,000.00,021.9,021.1,000.0,030.2,023.3,14.4,0000.0,0004.51,0007.40,0004.14
2023-12-22 14:53:00,SystemResetWarning,0831.9,5.01,000.00,021.9,021.1,000.0,030.2,023.3,14.4,0000.0,0004.47,0007.21,0004.13
2023-12-22 14:54:00,SystemResetWarning,0831.9,5.01,000.00,021.9,021.1,000.0,030.2,023.3,14.3,0000.0,0004.45,0007.31,0004.10
2023-12-22 14:55:00,SystemResetWarning,0831.9,5.00,000.00,021.9,021.1,000.0,030.3,023.3,14.3,0000.0,0004.41,0007.55,0004.06
2023-12-22 14:56:00,SystemResetWarning,0831.9,5.00,000.00,021.9,021.1,000.0,030.3,023.3,14.3,0000.0,0004.33,0007.45,0004.00
2023-12-22 14:57:00,SystemResetWarning,0831.9,5.00,000.00,021.9,021.1,000.0,030.2,023.3,14.3,0000.0,0004.27,0007.42,0003.93
2023-12-22 14:58:00,SystemResetWarning,0831.9,5.00,000.00,021.9,021.1,000.0,030.2,023.3,14.4,0000.0,0004.22,0007.65,0003.88
2023-12-22 14:59:00,SystemResetWarning,0831.9,5.00,000.00,021.9,021.2,000.0,030.3,023.3,14.5,0000.0,0004.19,0007.78,0003.84
